Location: Amanico Ergina Village
(37.7824°N, 122.4366°W)
Time: 08:26:02
(UTC+00:00)

Cosmos 1455 - Pass Details

Date: 29 October 2020
Orbit: 499 x 521 km, 82.5° (Epoch: 02 December)

Event Time Altitude Azimuth Distance (km) Brightness Sun altitude
Rises 13:31:48 0° 358° (N) 2,657 5.7 -12.6°
Reaches altitude 10° 13:34:00 10° 4° (N) 1,765 4.9 -12.1°
Maximum altitude 13:37:46 49° 81° (E) 678 3.2 -11.4°
Drops below altitude 10° 13:41:30 10° 157° (SSE) 1,750 5.3 -10.7°
Sets 13:43:40 0° 162° (SSE) 2,631 6.2 -10.3°
